Temp
8 9 9 8 9 8 7 8 8 10 10 11 9 8 9 9 9 8 8 7 7 7 7 7 6 7 8 8 8 8 7 7 7 7 6 6 6 6 5 5 4 4 3 3
6 9 9 8 9 9 9 8 8 9 9 10 10 10 9 9 9 9 8 8 7 7 7 7 7 7 8 8 7 7 7 7 6 6 6 6 5 5 4 4 3 3 2 2
6 9 8 8 9 9 10 10 10 8 10 8 8 8 9 9 9 8 8 7 7 7 7 7 7 7 8 7 7 6 6 6 5 5 5 5 4 4 4 3 2 2 2 2
4 7 8 11 10 9 10 10 11 10 9 8 9 10 10 10 9 8 7 7 7 7 7 7 7 7 7 6 6 5 5 5 5 4 4 4 4 3 3 2 2 2 2 1
5 7 10 10 10 10 9 10 11 10 9 9 10 10 9 9 8 7 7 6 7 6 6 6 6 6 6 6 5 5 4 4 4 4 4 4 3 2 2 2 1 1 1 1
6 9 10 11 10 10 10 9 10 10 8 7 9 6 6 8 8 7 7 7 7 6 6 6 6 6 6 5 5 4 4 4 3 3 3 3 2 2 2 1 1 1 1 -0
5 7 10 10 10 9 11 9 10 11 10 9 8 9 10 8 8 8 8 7 6 6 6 5 5 5 5 5 4 4 4 3 3 3 2 2 2 1 1 1 1 -0 -1 -2
8 9 8 10 9 10 9 9 9 10 10 10 9 9 8 7 8 8 8 7 6 6 6 5 5 5 5 4 4 3 3 3 2 2 2 2 1 1 1 0 -1 -2 -2 -3
10 10 9 9 9 8 9 9 9 10 10 10 9 8 8 7 7 7 7 7 6 6 5 4 4 4 4 3 3 2 2 2 2 2 1 1 1 0 -1 -1 -2 -2 -3 -3
9 9 9 9 9 8 8 8 9 9 9 9 9 8 7 7 6 7 7 6 6 5 4 4 4 3 3 3 2 2 2 1 1 1 1 0 -0 -1 -2 -2 -2 -3 -3 -4
9 8 8 8 8 8 8 8 8 9 9 9 8 8 7 6 6 6 6 6 5 5 4 3 3 3 2 2 2 1 1 1 1 1 -0 -1 -1 -2 -2 -2 -2 -3 -3 -4
9 7 8 7 7 7 7 7 7 7 8 8 7 7 7 6 6 6 6 5 5 4 3 3 3 2 2 2 1 1 1 1 0 -0 -1 -1 -2 -2 -3 -3 -3 -5 -6 -8
6 7 7 6 6 6 7 6 7 7 7 7 7 6 6 6 6 6 6 5 4 4 3 3 2 2 2 1 1 1 1 0 -0 -1 -1 -2 -2 -2 -3 -3 -4 -6 -6 -7
6 6 5 6 5 6 6 7 7 7 7 6 6 6 6 5 5 5 5 5 4 3 3 2 2 2 1 1 1 0 0 -0 -1 -1 -2 -2 -3 -3 -4 -5 -5 -6 -6 -8
4 5 5 5 5 5 5 5 5 6 6 6 5 5 5 5 5 4 4 4 3 3 2 2 2 1 1 0 0 -0 -0 -1 -1 -2 -3 -3 -4 -4 -5 -6 -7 -7 -9 -8
3 4 4 4 4 4 4 4 4 4 4 4 4 4 4 4 4 4 3 3 3 2 2 1 1 1 0 -0 -0 -0 -1 -2 -2 -3 -3 -4 -4 -5 -5 -6 -8 -8 -10 -10
2 2 2 2 3 3 3 3 4 4 3 3 4 3 3 4 3 3 3 2 1 1 1 1 1 0 -0 -0 -1 -1 -2 -2 -3 -4 -4 -4 -5 -5 -5 -8 -9 -10 -10 -10
1 1 2 2 2 2 2 2 3 3 3 3 3 3 3 3 3 2 2 1 1 1 0 0 -0 -0 -0 -1 -1 -2 -3 -3 -4 -4 -4 -4 -5 -5 -7 -9 -10 -10 -10 -11
-0 0 1 1 1 1 2 2 2 2 2 2 2 2 2 2 2 1 1 1 0 0 -0 -0 -1 -1 -1 -1 -2 -3 -3 -4 -4 -4 -5 -5 -5 -6 -8 -10 -10 -10 -10 -11
-0 0 1 1 1 1 1 1 2 2 2 2 2 2 1 1 1 0 0 -0 -1 -0 -1 -1 -1 -1 -2 -2 -3 -3 -4 -4 -4 -5 -5 -6 -6 -6 -8 -9 -10 -11 -11 -11
-0 0 0 0 1 1 1 1 1 1 1 1 1 1 1 0 -0 -0 -1 -1 -1 -1 -1 -1 -1 -2 -2 -3 -3 -4 -4 -5 -5 -5 -6 -6 -6 -7 -8 -10 -10 -11 -11 -10
-0 0 0 0 0 0 0 1 1 1 0 0 0 -0 -0 -1 -1 -1 -1 -1 -1 -2 -2 -2 -2 -3 -3 -3 -4 -4 -5 -5 -5 -6 -6 -7 -7 -7 -8 -9 -10 -10 -10 -10
-1 -0 0 -0 0 0 -0 -0 -0 -0 -0 -1 -1 -1 -1 -1 -1 -1 -2 -2 -2 -2 -2 -3 -3 -3 -4 -4 -5 -5 -6 -6 -7 -7 -7 -7 -8 -8 -8 -9 -10 -10 -10 -10
-1 -0 -1 -1 -0 -0 -1 -1 -1 -1 -1 -1 -1 -1 -1 -2 -2 -2 -2 -3 -3 -3 -3 -4 -4 -4 -5 -5 -6 -6 -7 -8 -8 -8 -8 -8 -9 -8 -9 -9 -9 -10 -10 -10
-1 -2 -2 -2 -2 -2 -3 -3 -3 -3 -3 -3 -3 -3 -3 -3 -3 -3 -3 -4 -4 -4 -4 -4 -5 -5 -6 -6 -6 -8 -8 -8 -8 -8 -8 -9 -9 -9 -9 -9 -10 -10 -10 -10
-3 -3 -3 -4 -4 -4 -4 -4 -4 -4 -4 -4 -4 -4 -4 -4 -4 -4 -4 -4 -5 -5 -5 -5 -5 -6 -6 -7 -7 -8 -8 -8 -8 -8 -9 -9 -9 -9 -9 -10 -10 -10 -10 -11
-5 -5 -5 -5 -5 -5 -5 -5 -5 -5 -5 -5 -5 -5 -5 -5 -5 -5 -5 -5 -5 -6 -6 -6 -6 -7 -7 -8 -8 -8 -9 -9 -9 -9 -9 -9 -9 -10 -10 -10 -10 -10 -10 -11
Height
1468 1460 1461 1457 1454 1456 1459 1456 1457 1445 1444 1442 1442 1446 1447 1449 1451 1452 1453 1457 1459 1461 1460 1473 1473 1474 1476 1478 1481 1484 1487 1488 1491 1493 1496 1498 1500 1502 1504 1505 1506 1507 1507 1508
1467 1453 1453 1453 1448 1447 1449 1449 1451 1450 1446 1439 1441 1445 1448 1451 1452 1453 1455 1459 1459 1461 1463 1469 1475 1476 1477 1479 1483 1485 1486 1488 1490 1493 1495 1497 1499 1501 1503 1504 1506 1506 1506 1505
1471 1451 1451 1451 1444 1444 1442 1441 1443 1447 1442 1439 1444 1447 1449 1452 1455 1456 1458 1460 1462 1465 1468 1473 1476 1476 1477 1480 1482 1484 1485 1488 1490 1492 1495 1497 1499 1501 1502 1503 1504 1504 1503 1503
1479 1458 1460 1442 1442 1442 1440 1439 1438 1440 1442 1443 1445 1449 1451 1454 1456 1458 1461 1463 1465 1468 1470 1473 1474 1476 1478 1479 1481 1482 1484 1487 1489 1492 1495 1497 1498 1500 1501 1502 1502 1501 1501 1500
1480 1469 1446 1441 1441 1441 1443 1441 1439 1441 1444 1446 1450 1452 1455 1456 1458 1460 1463 1465 1467 1470 1472 1473 1474 1475 1476 1478 1480 1482 1484 1487 1489 1492 1495 1496 1498 1499 1500 1500 1500 1499 1498 1497
1473 1463 1450 1440 1439 1440 1440 1446 1441 1441 1444 1448 1451 1458 1458 1458 1459 1461 1464 1466 1467 1469 1471 1472 1473 1474 1476 1478 1481 1483 1485 1488 1490 1493 1495 1496 1498 1498 1498 1498 1497 1496 1495 1493
1476 1468 1446 1439 1439 1439 1440 1449 1442 1442 1444 1447 1449 1449 1450 1455 1458 1461 1463 1465 1467 1468 1470 1472 1474 1476 1478 1480 1482 1484 1487 1489 1491 1493 1495 1496 1496 1496 1496 1495 1495 1493 1491 1489
1461 1457 1459 1441 1440 1442 1445 1442 1441 1442 1444 1447 1448 1448 1451 1455 1457 1460 1462 1465 1467 1469 1471 1473 1475 1477 1479 1481 1483 1485 1488 1490 1492 1493 1494 1495 1494 1494 1494 1493 1491 1489 1487 1484
1446 1444 1441 1441 1442 1442 1442 1442 1442 1442 1444 1447 1448 1451 1453 1455 1457 1460 1463 1465 1467 1469 1471 1474 1476 1478 1479 1481 1484 1486 1488 1490 1491 1492 1493 1493 1493 1492 1491 1490 1488 1485 1483 1480
1443 1442 1441 1441 1442 1443 1443 1443 1443 1443 1445 1446 1448 1450 1452 1454 1457 1459 1462 1464 1467 1469 1471 1473 1476 1478 1480 1482 1484 1486 1488 1489 1490 1491 1491 1491 1490 1489 1488 1486 1484 1482 1479 1476
1439 1439 1441 1442 1442 1443 1443 1443 1443 1444 1444 1446 1447 1448 1450 1453 1455 1458 1461 1464 1466 1468 1471 1473 1475 1477 1480 1482 1484 1485 1487 1488 1489 1489 1489 1488 1487 1486 1485 1483 1481 1478 1476 1473
1432 1435 1436 1441 1442 1443 1443 1443 1443 1444 1444 1445 1446 1448 1450 1452 1455 1457 1460 1462 1465 1467 1469 1472 1474 1477 1479 1481 1483 1485 1486 1487 1487 1487 1487 1486 1485 1484 1482 1480 1478 1475 1473 1470
1429 1433 1435 1437 1439 1440 1441 1442 1443 1443 1444 1444 1446 1447 1449 1452 1454 1456 1459 1461 1463 1465 1468 1470 1473 1476 1478 1480 1482 1484 1485 1485 1485 1485 1484 1483 1482 1480 1479 1478 1475 1473 1470 1467
1428 1430 1435 1435 1436 1438 1439 1440 1441 1442 1442 1443 1444 1446 1448 1450 1453 1455 1457 1460 1462 1464 1467 1470 1472 1475 1478 1479 1481 1482 1482 1483 1482 1482 1481 1480 1479 1477 1475 1473 1470 1468 1465 1463
1429 1427 1429 1433 1434 1435 1436 1437 1438 1439 1440 1442 1443 1445 1447 1449 1451 1453 1456 1458 1461 1464 1466 1469 1471 1474 1476 1478 1479 1480 1480 1480 1480 1479 1478 1477 1476 1474 1472 1469 1467 1464 1462 1459
1428 1426 1427 1430 1432 1433 1434 1435 1436 1437 1439 1440 1441 1443 1445 1448 1450 1452 1455 1457 1460 1462 1465 1468 1470 1473 1474 1476 1476 1477 1478 1477 1477 1476 1475 1474 1472 1470 1468 1465 1462 1460 1458 1455
1426 1425 1425 1427 1429 1432 1433 1434 1434 1435 1437 1439 1441 1443 1445 1447 1450 1452 1454 1456 1459 1462 1465 1467 1469 1471 1472 1474 1474 1474 1474 1474 1473 1472 1471 1470 1469 1466 1463 1461 1459 1457 1456 1453
1423 1423 1424 1424 1426 1429 1432 1433 1434 1434 1436 1438 1440 1443 1445 1447 1449 1451 1453 1455 1458 1461 1463 1466 1468 1469 1470 1471 1471 1471 1471 1470 1469 1469 1468 1467 1465 1462 1460 1458 1456 1454 1452 1450
1422 1422 1422 1423 1425 1428 1430 1432 1433 1435 1436 1438 1440 1442 1444 1446 1448 1450 1453 1455 1458 1460 1463 1465 1466 1467 1468 1468 1467 1467 1467 1466 1466 1465 1465 1463 1461 1459 1456 1454 1453 1451 1449 1446
1422 1421 1421 1423 1426 1428 1431 1432 1434 1435 1437 1438 1440 1442 1444 1446 1448 1451 1453 1456 1458 1460 1462 1463 1464 1464 1464 1464 1463 1463 1463 1462 1462 1462 1461 1459 1457 1454 1451 1449 1448 1447 1445 1442
1421 1421 1422 1425 1428 1430 1432 1433 1434 1436 1437 1439 1440 1442 1444 1447 1449 1451 1454 1456 1457 1459 1460 1460 1461 1460 1460 1460 1460 1459 1459 1458 1457 1457 1456 1455 1453 1450 1448 1446 1443 1443 1441 1438
1423 1424 1425 1427 1431 1432 1433 1434 1436 1437 1438 1439 1441 1443 1445 1447 1449 1451 1453 1455 1456 1457 1457 1457 1457 1457 1457 1456 1456 1455 1455 1454 1453 1452 1451 1450 1448 1446 1443 1442 1440 1438 1436 1434
1427 1427 1429 1431 1433 1434 1435 1436 1437 1438 1439 1440 1441 1443 1444 1446 1448 1450 1452 1453 1454 1454 1455 1454 1454 1453 1452 1452 1451 1450 1449 1448 1448 1447 1446 1445 1443 1441 1439 1437 1435 1433 1431 1430
1429 1431 1434 1434 1434 1435 1437 1438 1439 1440 1440 1441 1442 1443 1444 1445 1446 1448 1449 1450 1451 1451 1451 1450 1449 1449 1448 1447 1446 1444 1443 1443 1443 1442 1441 1440 1438 1436 1434 1432 1430 1428 1427 1426
1432 1434 1436 1437 1436 1436 1437 1438 1439 1440 1441 1441 1442 1442 1443 1444 1445 1446 1446 1447 1447 1447 1446 1445 1445 1444 1442 1441 1440 1439 1438 1438 1437 1436 1434 1433 1432 1430 1429 1427 1425 1423 1422 1421
1434 1435 1436 1437 1437 1437 1438 1439 1440 1440 1441 1441 1442 1442 1442 1442 1442 1443 1442 1442 1442 1441 1441 1440 1439 1437 1436 1435 1434 1433 1432 1431 1430 1429 1428 1427 1425 1424 1423 1421 1419 1418 1417 1417
1435 1436 1437 1438 1438 1438 1438 1440 1440 1441 1441 1441 1440 1440 1439 1439 1439 1438 1437 1437 1436 1435 1434 1433 1432 1431 1430 1429 1428 1427 1426 1424 1423 1422 1421 1420 1419 1417 1416 1415 1413 1412 1412 1412
Wind_Speed
11 16 13 16 15 9 10 10 5 4 4 3 6 7 7 12 16 17 21 20 21 21 18 15 14 14 14 13 13 13 13 12 11 10 8 7 5 3 1 2 3 4 5 6
9 11 8 8 7 8 7 8 9 11 15 7 14 14 9 13 15 18 19 19 19 15 15 10 12 13 13 12 12 13 13 12 10 9 8 7 4 2 0 2 3 3 5 7
5 7 9 4 3 3 4 3 4 5 5 7 7 6 12 14 16 19 19 17 18 16 14 12 12 11 11 12 12 12 12 11 11 9 8 6 4 1 1 1 2 4 7 11
5 9 4 2 1 2 2 5 3 2 5 7 9 11 14 14 18 19 18 17 14 13 12 10 9 10 11 12 13 13 11 11 10 9 8 6 3 1 0 1 5 9 12 16
2 3 5 1 1 2 3 2 2 5 7 14 17 17 12 16 13 15 14 13 13 12 12 12 11 11 11 13 12 12 13 12 11 9 7 4 3 1 2 6 10 13 16 18
4 3 3 1 1 0 2 2 3 6 7 11 16 3 4 14 15 16 12 11 12 12 11 11 12 11 12 14 13 13 13 12 10 8 5 4 1 3 7 11 14 15 16 16
5 4 5 1 1 2 2 3 3 4 17 17 4 2 14 22 16 13 11 10 10 10 10 11 11 11 12 12 12 13 12 10 8 7 4 1 4 8 11 12 14 14 15 16
3 2 5 2 2 2 1 3 1 2 15 14 9 12 23 21 19 15 11 11 9 8 10 11 10 10 11 11 12 11 10 9 7 3 1 5 8 10 11 12 13 15 17 18
3 3 1 1 4 4 5 5 3 6 10 11 8 14 16 19 18 15 12 10 9 9 11 11 10 9 10 12 12 11 9 6 3 2 4 6 8 10 10 12 15 17 19 21
3 1 1 3 2 1 2 2 3 4 7 11 10 11 15 17 17 16 13 11 10 10 11 12 11 10 10 12 11 8 6 3 1 4 7 7 9 10 12 14 16 18 20 21
3 4 6 5 4 3 3 2 1 0 3 9 11 12 16 18 18 16 13 12 10 11 12 13 12 11 12 11 9 7 4 2 4 5 6 8 10 11 13 15 17 19 20 20
4 4 6 6 3 3 3 3 1 1 0 4 11 11 14 16 16 15 13 12 12 12 12 13 13 13 12 10 8 6 4 4 5 6 7 9 11 12 14 16 18 19 18 18
7 7 8 6 2 1 2 2 2 1 1 2 9 10 13 14 15 13 12 12 13 12 13 14 14 13 11 9 7 5 4 5 6 7 8 10 12 14 16 15 16 17 19 16
7 8 6 7 4 1 2 2 2 3 3 4 5 9 12 13 13 13 12 11 12 13 13 13 13 12 11 9 7 5 6 6 8 9 9 11 13 14 16 18 20 21 21 16
6 8 8 4 2 3 3 3 3 3 3 4 6 8 10 11 11 12 11 11 12 13 14 14 14 12 10 8 7 6 7 8 9 9 10 12 13 15 17 19 20 21 22 18
7 6 5 5 4 3 2 2 4 3 3 4 6 8 9 10 10 10 9 10 12 14 14 14 12 10 9 7 7 8 8 9 9 10 10 12 14 18 20 21 20 21 19 19
9 9 9 8 5 3 2 3 4 4 5 6 6 7 8 8 8 8 9 11 12 11 12 12 10 9 8 8 9 9 10 10 10 10 11 13 17 20 19 19 20 19 18 18
5 6 6 6 6 6 5 5 6 7 7 7 7 7 7 7 7 8 10 11 11 12 12 10 9 8 8 9 10 11 11 10 11 11 12 14 18 21 20 18 16 18 18 19
7 8 8 8 7 6 7 7 7 7 7 7 6 6 6 6 7 8 10 11 11 10 9 8 7 8 9 10 11 11 11 11 12 12 13 15 18 19 19 16 17 17 17 18
9 9 9 9 8 8 8 8 7 7 7 7 7 7 7 7 8 9 10 9 8 6 5 5 6 8 10 11 12 12 12 13 14 14 14 16 19 20 18 16 15 15 16 17
12 12 12 11 10 10 9 9 8 8 8 8 7 7 7 7 8 8 8 7 6 5 5 5 7 9 11 12 13 13 14 16 16 15 15 17 19 20 18 17 15 15 16 18
13 12 12 11 10 9 9 8 8 8 8 7 7 6 7 7 7 7 6 5 4 4 6 8 10 12 13 14 14 15 16 18 17 16 16 17 20 20 19 18 17 17 17 18
12 11 10 8 7 7 7 6 6 5 5 5 6 6 5 4 4 5 5 4 4 6 10 12 13 13 14 15 16 17 20 17 16 17 18 19 20 21 20 19 17 17 18 17
11 9 6 5 5 4 4 4 3 3 3 4 4 4 5 5 6 5 6 6 8 11 13 13 13 14 15 17 18 19 17 17 18 19 19 21 21 22 22 20 18 18 18 15
6 5 4 3 3 3 3 2 2 2 2 2 3 3 4 5 5 6 7 10 12 14 14 15 15 16 17 17 18 17 17 18 20 20 21 23 23 22 22 21 19 17 16 13
7 6 6 5 5 4 3 2 0 0 1 1 2 3 5 6 8 10 13 14 15 15 16 17 17 17 16 17 18 18 19 20 21 22 23 22 22 23 22 20 18 17 14 12
7 6 5 5 5 5 4 2 1 1 2 4 5 7 9 11 13 14 15 16 17 17 17 17 17 17 18 18 19 20 21 22 22 21 20 21 22 21 20 20 18 16 13 12
Wind_Direction
264 276 282 274 270 249 206 233 249 309 207 34 142 141 143 144 142 141 135 134 130 131 128 151 152 151 156 161 163 167 169 167 171 174 179 173 177 178 207 304 304 298 303 309
288 269 229 266 275 253 244 232 244 264 281 272 114 116 127 127 131 127 122 126 127 125 136 141 162 162 164 164 170 173 176 180 177 177 173 170 166 149 231 291 288 308 320 320
276 317 308 301 272 276 199 236 243 258 272 123 116 148 151 143 136 124 125 125 125 134 146 161 166 162 163 169 170 174 184 178 176 171 166 161 150 174 261 308 324 321 322 321
279 315 349 256 58 281 293 292 102 336 100 124 133 128 129 138 131 127 131 133 138 149 151 155 155 158 159 158 162 171 169 164 161 159 156 151 165 189 141 320 324 323 321 318
274 290 251 184 66 352 26 126 134 121 117 107 121 112 82 130 137 132 133 138 140 144 146 142 141 140 144 144 151 152 148 149 146 147 151 161 163 124 347 325 325 322 318 313
330 281 297 256 52 327 302 66 93 136 128 134 150 119 197 134 152 151 151 144 139 137 135 136 130 133 137 136 138 137 137 140 145 153 154 135 108 337 329 327 324 318 315 319
231 271 290 44 44 327 0 255 348 163 150 159 156 203 176 170 166 158 149 141 138 139 138 138 140 143 141 137 137 139 143 147 146 135 129 36 337 333 328 321 318 322 326 330
201 244 301 1 319 30 268 25 13 159 160 161 112 124 154 168 167 167 159 150 154 152 153 152 153 156 147 148 145 147 146 141 135 125 29 342 331 324 321 327 333 332 333 333
193 217 101 64 104 99 74 54 60 132 161 178 143 157 170 176 178 175 170 169 169 168 164 161 164 163 158 152 150 149 146 141 131 22 339 325 321 329 336 336 336 335 334 332
11 27 96 124 135 97 344 76 91 154 186 195 204 181 183 188 185 183 182 182 179 174 172 169 173 164 162 157 157 158 155 142 348 321 317 328 336 337 339 337 336 335 332 330
238 140 104 88 108 75 53 64 57 167 201 199 206 200 195 189 191 191 190 187 187 187 182 177 180 171 167 168 172 166 171 239 297 315 323 328 333 336 337 338 337 335 332 329
196 133 110 116 122 72 76 55 51 53 360 193 196 206 197 196 196 198 197 192 190 190 187 184 184 179 176 178 180 198 229 286 309 315 321 326 329 334 335 335 334 332 327 324
149 151 128 140 148 81 69 19 336 251 209 178 182 192 198 199 203 205 202 199 199 200 193 193 189 184 182 188 202 227 268 295 301 308 316 323 327 329 330 329 327 326 321 321
167 150 131 147 151 131 311 302 298 297 267 229 203 195 195 205 204 207 204 200 199 199 195 196 191 189 194 203 218 250 279 290 301 310 317 324 325 325 324 325 326 326 327 331
178 156 155 183 224 257 284 278 246 240 232 210 207 201 199 203 200 198 200 203 201 198 197 195 195 197 202 217 239 268 284 295 303 310 315 320 321 321 321 319 322 327 330 331
197 170 160 159 149 140 138 137 161 176 183 182 184 182 184 186 189 196 200 200 202 199 196 194 198 202 215 235 263 279 289 295 297 302 309 314 318 319 318 323 327 327 326 328
157 149 161 162 163 168 174 167 171 169 166 168 169 172 179 184 189 194 193 190 191 192 192 197 207 215 237 259 276 284 288 288 293 301 309 318 321 320 320 320 320 321 320 325
172 165 168 166 167 165 165 163 156 156 160 160 165 171 177 184 192 189 186 187 184 184 192 205 218 238 257 272 277 280 281 286 294 303 310 316 322 323 320 320 313 312 313 317
144 134 128 128 138 150 162 162 153 150 151 159 165 168 172 176 176 177 179 181 187 193 201 217 238 261 271 273 276 279 284 288 295 302 306 314 318 317 314 309 305 305 308 312
139 125 116 117 121 126 131 135 137 140 144 151 156 160 165 167 169 171 173 180 190 205 219 244 260 269 275 278 281 285 287 290 294 296 299 309 317 317 314 307 305 302 303 311
116 112 110 110 114 118 122 123 125 129 132 138 143 148 155 159 164 170 178 187 196 221 243 264 279 285 287 287 285 282 283 286 289 289 295 307 315 319 312 308 304 301 304 315
102 106 108 109 113 115 113 114 117 120 126 130 134 141 150 157 164 173 184 200 212 251 278 293 297 292 287 285 285 284 283 285 283 284 291 301 308 311 310 307 304 302 308 316
86 88 92 99 106 103 104 107 112 120 129 135 144 152 160 170 182 191 212 233 263 288 299 300 295 290 287 285 282 279 280 278 276 283 291 296 301 305 310 308 305 304 309 312
70 70 72 79 89 102 113 115 127 141 156 166 183 196 208 208 210 226 245 271 289 296 297 293 289 287 285 283 280 283 280 274 276 279 286 291 293 301 306 305 304 304 307 303
77 73 67 68 92 95 107 116 157 188 213 217 212 207 216 232 249 260 276 288 292 292 290 288 291 291 286 283 282 279 276 277 281 285 286 288 291 298 303 303 302 302 302 293
75 75 74 74 72 70 65 57 65 123 203 223 229 241 252 259 268 282 291 293 291 290 291 293 293 290 286 284 284 284 284 284 283 283 284 284 289 295 298 299 298 298 289 278
84 85 81 75 71 65 64 65 59 272 282 276 273 276 279 282 286 290 292 292 293 294 294 294 293 289 288 287 286 286 285 284 286 287 286 288 291 293 295 298 298 294 280 266